CZ-4C DEB (51286 NORAD) Tracking and Keplerian Element Data

This shows tracking and keplerian element data for the satellite.

Feedback or suggestion? Click here.




ElementValue
Catalog51286
NameCZ-4C DEB
Epoch Orbit234
Epoch Day41.98973314
Epoch Year2022
RAAN50.4506
Inclination97.7903
Eccentricity0.0110633
Argument of Perigee154.4635
Mean Anonmoly206.2095
Mean Motion14.68505393
Decay Rate0.01050619
L11 51286U 22007C 22041.98973314 .01050619 00000+0 15362+0 0 9993
L22 51286 97.7903 50.4506 0110633 154.4635 206.2095 14.68505393 2348



Live tracking and technical data element details for CZ-4C DEB (NORAD 51286). CZ-4C DEB can be tracked NOW for your location showing map with azimuth and elevation plus other details from your city location.







IsCatalogInMostPopularTable: catalog: 51286, numindb: 33
Update: records affected: 1



GetName: 51286 CZ-4C DEB

Hit Count: updated at: Sun, 28 May 2023 20:21:14 GMT